Tracking 28790 objects as of 19-Apr-2024
HD Live streaming from Space Station
objects crossing your sky now

STARLINK-5300

Track STARLINK-5300 now!
10-day predictions
STARLINK-5300 is classified as:


NORAD ID: 55676
Int'l Code: 2023-021BA
Perigee: 576.9 km
Apogee: 581.4 km
Inclination: 70.0 °
Period: 96.1 minutes
Semi major axis: 6950 km
RCS: Unknown
Launch date: February 17, 2023
Source: United States (US)
Launch site: AIR FORCE WESTERN TEST RANGE (AFWTR)
Your satellite tracking list
Your tracking list is empty




NASA's NSSDC Master Catalog

Two Line Element Set (TLE):
1 55676U 23021BA  24110.17979000 -.00000055  00000-0  31691-5 0  9994
2 55676  69.9992  83.0427 0003227 270.3232  89.7557 14.98332868 66197
Source of the keplerian elements: AFSPC